Flag for Iran Weather past 2 weeks in Mashhad, Iran

Now
37 °F

Mostly cloudy.


Feels Like: 30 °F
Forecast: 39 / 72 °F
Wind: 12 mph from Southeast

Location: Mashhad Airport

Current Time: Mar 30, 2015 at 5:35:27 PM

Latest Report: Mar 30, 2015 at 5:00 PM


Visibility: N/A

Pressure: 30.07 "Hg

Humidity: 70%

Dew point: 28 °F

Location of MashhadLocation

Historic Weather in Mashhad — Graph

°F

Mashhad temperature yesterday

Maximum temperature yesterday: 64 °F (at 3:30 PM)
Minimum temperature yesterday: 41 °F (at 4:30 AM)
Average temperature yesterday: 52 °F

Past Weeks' High & Low Weather Summary

 TemperatureHumidityPressure
High79 °F (Mar 21, 2:00 PM)100% (Mar 20, 1:00 AM)30.33 "Hg (Mar 20, 1:00 AM)
Low32 °F (Mar 30, 9:00 AM)21% (Mar 21, 3:30 PM)29.62 "Hg (Mar 23, 4:00 PM)
Average51 °F65%30.13 "Hg
* Reported Mar 15 3:30 PM — Mar 30 4:30 PM, Mashhad, Weather by CustomWeather, © 2015

Note: Actual official high and low records may vary slightly from our data, if they occured in-between our weather recording intervals... More about our weather records

Advertising

Mashhad weather history for previous 24 hours

 ConditionsComfort  
Time TempWeatherWind HumidityBarometerVisibility
4:30 PM
Mon, Mar 30
37 °FMostly cloudy.14 mph70%30.09 "HgN/A
4:00 PM37 °FMore clouds than sun.9 mph70%30.07 "Hg5 mi
3:30 PM37 °FMore clouds than sun.14 mph70%30.09 "Hg5 mi
3:00 PM37 °FMore clouds than sun.9 mph70%30.09 "Hg5 mi
2:30 PM37 °FMostly cloudy.9 mph70%30.12 "HgN/A
2:00 PM37 °FMostly cloudy.12 mph70%30.12 "HgN/A
1:30 PM36 °FMostly cloudy.9 mph75%30.15 "HgN/A
1:00 PM34 °FMostly cloudy.14 mph75%30.15 "HgN/A
12:30 PM34 °FOvercast.14 mph75%30.18 "HgN/A
12:00 PM32 °FOvercast.12 mph80%30.21 "HgN/A
11:30 AM32 °FMostly cloudy.9 mph75%30.18 "HgN/A
11:00 AM32 °FMostly cloudy.14 mph75%30.21 "HgN/A
10:30 AM32 °FMostly cloudy.14 mph75%30.21 "HgN/A
10:00 AM32 °FMostly cloudy.12 mph75%30.21 "HgN/A
9:30 AM32 °FMostly cloudy.12 mph75%30.21 "Hg4 mi
9:00 AM32 °FMostly cloudy.9 mph75%30.24 "Hg4 mi
8:30 AM34 °FMore clouds than sun.9 mph70%30.21 "HgN/A
8:00 AM34 °FMore clouds than sun.9 mph65%30.21 "HgN/A
7:30 AM34 °FOvercast.12 mph70%30.21 "Hg5 mi
7:00 AM34 °FOvercast.9 mph70%30.18 "Hg4 mi
6:30 AM34 °FOvercast.12 mph70%30.18 "Hg4 mi
6:00 AM36 °FOvercast.12 mph70%30.18 "Hg4 mi
5:30 AM36 °FOvercast.12 mph70%30.18 "Hg4 mi
5:00 AM36 °FOvercast.14 mph75%30.15 "Hg4 mi
4:30 AM37 °FOvercast.16 mph75%30.15 "Hg4 mi
4:00 AM39 °FOvercast.12 mph70%30.15 "Hg4 mi
3:30 AM39 °FOvercast.12 mph75%30.15 "Hg4 mi
3:00 AM41 °FOvercast.12 mph70%30.15 "HgN/A
2:30 AM41 °FOvercast.14 mph70%30.12 "Hg4 mi
2:00 AM41 °FOvercast.12 mph76%30.12 "Hg4 mi
1:30 AM43 °FOvercast.12 mph76%30.12 "Hg5 mi
1:00 AM45 °FOvercast.16 mph71%30.12 "Hg5 mi
12:30 AM45 °FOvercast.16 mph76%30.12 "Hg5 mi
12:00 AM46 °FOvercast.14 mph71%30.12 "HgN/A
11:30 PM
Sun, Mar 29
46 °FClear.12 mph76%30.12 "Hg10 mi
11:00 PM48 °FClear.12 mph71%30.09 "Hg10 mi
10:30 PM48 °FClear.14 mph71%30.09 "Hg10 mi
10:00 PM50 °FClear.12 mph67%30.09 "Hg10 mi
9:30 PM52 °FClear.12 mph62%30.09 "Hg10 mi
9:00 PM52 °FClear.12 mph62%30.09 "Hg10 mi
8:30 PM52 °FClear.12 mph67%30.09 "Hg10 mi
8:00 PM52 °FSunny.7 mph67%30.07 "Hg10 mi
7:30 PM54 °FSunny.9 mph63%30.09 "Hg10 mi
7:00 PM57 °FSunny.9 mph59%30.04 "Hg10 mi
6:30 PM57 °FSunny.16 mph63%30.04 "Hg10 mi
6:00 PM61 °FSunny.16 mph52%30.04 "Hg10 mi
5:30 PM63 °FSunny.21 mph45%30.04 "Hg10 mi
5:00 PM64 °FSunny.14 mph46%30.01 "Hg10 mi
Weather by CustomWeather, © 2015

See weather overviewHow to use our weather pages